This is the latest recevied weather packets stored in our database for station/object IK6ZNK-3. If no packets are shown the sender has not sent any weather packets the latest 1 day(s).
| Time | Temp. | Humidity | Pressure | Rain* | Wind** | Luminosity | Snow |
|---|---|---|---|---|---|---|---|
| 1777996206 | 19.44° C | 67% | 1006.6 hPa | 0 mm | 1.34 m/s, 90° | - | - |
| 1777995606 | 19.44° C | 69% | 1006.2 hPa | 0 mm | 1.34 m/s, 79° | - | - |
| 1777995007 | 19.44° C | 69% | 1006.7 hPa | 0 mm | 1.34 m/s, 97° | - | - |
| 1777994407 | 20° C | 69% | 1006.4 hPa | 0 mm | 0.89 m/s, 56° | - | - |
| 1777993807 | 20° C | 68% | 1006.8 hPa | 0 mm | 0.45 m/s, 84° | - | - |
| 1777993207 | 19.44° C | 70% | 1006.6 hPa | 0 mm | 0.45 m/s, 76° | - | - |
| 1777992606 | 19.44° C | 71% | 1006.6 hPa | 0 mm | 0.89 m/s, 86° | - | - |
| 1777992006 | 19.44° C | 70% | 1006.7 hPa | 0 mm | 0.89 m/s, 96° | - | - |
| 1777991407 | 19.44° C | 70% | 1007 hPa | 0 mm | 1.34 m/s, 79° | - | - |
| 1777990807 | 19.44° C | 69% | 1006.7 hPa | 0 mm | 1.34 m/s, 62° | - | - |
| 1777990207 | 20.56° C | 67% | 1006.6 hPa | 0 mm | 0.89 m/s, 72° | - | - |
| 1777989609 | 20° C | 68% | 1006.7 hPa | 0 mm | 0.89 m/s, 96° | - | - |
| 1777989008 | 20° C | 69% | 1007 hPa | 0 mm | 1.34 m/s, 90° | - | - |
| 1777988407 | 20° C | 70% | 1007 hPa | 0 mm | 1.34 m/s, 112° | - | - |
| 1777987809 | 20° C | 70% | 1006.9 hPa | 0 mm | 1.34 m/s, 52° | - | - |
| 1777987210 | 19.44° C | 71% | 1007 hPa | 0 mm | 1.79 m/s, 35° | - | - |
| 1777986609 | 19.44° C | 70% | 1006.9 hPa | 0 mm | 1.34 m/s, 41° | - | - |
| 1777986008 | 19.44° C | 71% | 1007 hPa | 0 mm | 1.34 m/s, 41° | - | - |
| 1777985413 | 19.44° C | 71% | 1007.3 hPa | 0 mm | 1.79 m/s, 53° | - | - |
| 1777984809 | 19.44° C | 72% | 1007.4 hPa | 0 mm | 1.79 m/s, 11° | - | - |
| 1777984209 | 19.44° C | 69% | 1007.1 hPa | 0 mm | 1.79 m/s, 17° | - | - |
| 1777983608 | 20° C | 69% | 1007.3 hPa | 0 mm | 0.89 m/s, 39° | - | - |
| 1777983015 | 20° C | 70% | 1007.4 hPa | 0 mm | 0.89 m/s, 16° | - | - |
| 1777982410 | 20° C | 67% | 1007.4 hPa | 0 mm | 0.89 m/s, 16° | - | - |
| 1777981809 | 18.89° C | 70% | 1007.4 hPa | 0 mm | 1.79 m/s, 13° | - | - |
* Rain latest hour (hover to see other rain measurements)
** Current wind speed in m/s (hover to see current wind gust speed)